[[{"header":{"parameterUnit":"m.s-1","parameterCategory":2,"la1":30.2991,"la2":30.254,"lo1":-89.0895,"lo2":-89.0444,"dy":0.0017,"dx":0.0017,"nx":28,"ny":28,"refTime":"2025-07-20T09:00:00:Z","depth":"0","parameterNumber":2,"parameterNumberName":"U-component_of_CURRENTS"},"data":[0,0,0,0,0,0,0,0,0,0,0,0,0,0,0,0,0,0,0,0,0,0,0,0,0,0,0,0,0,0,0,0,0,0,0,0,0,0,0,0,0,0,0,0,0,0,0,0,0,0,0,0,0,0,0,0,0,0,0.4467,0.4469,0,0.4566,0.4567,0.4568,0.4561,0.456,0.4558,0.4557,0.4557,0.4558,0.4559,0,0,0,0,0,0,0,0,0,0,0,0,0,0.4303,0.4306,0.4467,0.4469,0.447,0.4566,0.4567,0.4568,0.4561,0.4559,0.4558,0.4557,0.4557,0.4558,0.4559,0,0,0,0,0,0,0,0,0,0,0,0,0,0.4382,0.4307,0.4467,0.4481,0.4483,0.4566,0.4567,0.4568,0.4561,0.4559,0.4558,0.4556,0.4556,0.4558,0.456,0.4604,0,0,0.4564,0.4565,0,0,0,0,0,0,0,0,0.4377,0.4387,0.4477,0.448,0.4483,0.4552,0.4509,0.4576,0.4562,0.4528,0.4557,0.4555,0.455,0.4552,0.4571,0.4604,0.4604,0.4565,0.4565,0.4566,0.4567,0,0,0,0,0,0,0,0.4372,0.4383,0.4503,0.4479,0.4483,0.4493,0.4502,0.4522,0.4543,0.4531,0.4531,0.4549,0.455,0.4569,0.457,0.4604,0.4564,0.4566,0.4567,0.4567,0.4761,0.4765,0,0,0,0,0,0,0.4368,0.4379,0.45,0.4506,0.4429,0.4498,0.4507,0.4529,0.4545,0.4547,0.455,0.4548,0.4567,0.4569,0.457,0.4688,0.4566,0.4568,0.4569,0.4757,0.4762,0.4766,0,0,0,0,0,0,0.4364,0.4378,0.4496,0.4447,0.4463,0.4502,0.4527,0.4532,0.4561,0.4561,0.456,0.4575,0.4566,0.4568,0.4612,0.4685,0.4568,0.457,0.4752,0.4758,0.4764,0.4881,0,0,0,0,0,0,0.4359,0.4376,0.4397,0.4447,0.4466,0.4581,0.4529,0.4535,0.4575,0.4574,0.4583,0.458,0.4565,0.461,0.4614,0.4685,0.4571,0.4747,0.4755,0.4762,0.4872,0.4891,0.4907,0,0,0,0,0,0.4353,0.4391,0.4397,0.4412,0.4491,0.4584,0.4597,0.4614,0.4578,0.4626,0.4616,0.458,0.4663,0.4614,0.4618,0.4691,0.4743,0.4752,0.4762,0.4865,0.4887,0.4907,0,0,0,0,0,0,0.4333,0.4396,0.4403,0.4458,0.4533,0.4585,0.462,0.4629,0.466,0.4641,0.462,0.4621,0.4691,0.4682,0.4628,0.4776,0.4704,0.4714,0.4781,0.4803,0.482,0.4776,0.4572,0,0,0,0,0,0.434,0.4381,0.4453,0.4503,0.4534,0.4578,0.4614,0.4635,0.4667,0.4678,0.4688,0.4701,0.4736,0.4757,0.4784,0.4857,0.4866,0.4915,0.4932,0.4946,0.4918,0.5076,0.5105,0.4797,0.4797,0.4797,0,0,0.4354,0.4386,0.4416,0.4502,0.4543,0.4617,0.4595,0.4665,0.4718,0.4673,0.4737,0.4756,0.4768,0.4852,0.4885,0.4851,0.5034,0.4958,0.497,0.4933,0.5089,0.5119,0.5145,0.4804,0.4803,0.4801,0,0,0.4397,0.4424,0.4475,0.4543,0.4621,0.4653,0.4679,0.4753,0.4775,0.4854,0.4834,0.489,0.4949,0.4978,0.4994,0.5126,0.5117,0.5158,0.5212,0.5369,0.5395,0.5417,0.5434,0.5458,0.5172,0.5172,0.5172,0,0.4412,0.4476,0.4512,0.4583,0.4643,0.4671,0.4756,0.4793,0.4874,0.4903,0.4889,0.5012,0.5007,0.5112,0.5142,0.5162,0.521,0.5126,0.539,0.5413,0.5435,0.5447,0.5471,0.5179,0.5178,0.5177,0.5177,0,0.4501,0.4557,0.4595,0.4684,0.4761,0.4839,0.4905,0.4954,0.4974,0.5021,0.5134,0.5165,0.5235,0.5268,0.5223,0.5387,0.5354,0.5391,0.5329,0.5473,0.5476,0.5499,0.5189,0.5186,0.5184,0.5183,0,0,0.4527,0.4635,0.4649,0.4696,0.4821,0.4884,0.4969,0.5065,0.51,0.5203,0.5287,0.5363,0.5385,0.5404,0.5416,0.552,0.5677,0.551,0.5515,0.5507,0.5951,0.5734,0.5737,0.5797,0.5802,0.5807,0.5878,0,0.4589,0.4693,0.4759,0.4881,0.4942,0.501,0.5089,0.5173,0.5226,0.5308,0.5379,0.546,0.5444,0.5481,0.56,0.5646,0.5751,0.5647,0.5826,0.5827,0.5607,0.5763,0.5457,0.5481,0.59,0.5904,0.5907,0,0.4651,0.4713,0.4821,0.4943,0.4982,0.5062,0.5169,0.5253,0.5358,0.5403,0.552,0.5563,0.5682,0.5671,0.5876,0.5824,0.5886,0.593,0.5938,0.57,0.5656,0.5417,0.5507,0.538,0.5942,0.5939,0.5937,0,0.4605,0.4754,0.482,0.4874,0.5021,0.5078,0.5164,0.5277,0.5352,0.5463,0.5525,0.5689,0.5754,0.5922,0.5983,0.5962,0.6199,0.6196,0.6063,0.6044,0.5788,0.5737,0.5753,0.6386,0.6386,0.6386,0.6386,0,0.4628,0.4698,0.4792,0.4836,0.4946,0.5058,0.5169,0.5254,0.5389,0.5486,0.5578,0.5664,0.5836,0.5971,0.6048,0.6101,0.6281,0.6064,0.6078,0.5813,0.5765,0.5641,0.5599,0.6388,0.6388,0.6387,0.6387,0,0.461,0.4647,0.4746,0.4878,0.4919,0.5009,0.5194,0.5271,0.5377,0.5506,0.5551,0.5682,0.5795,0.5943,0.6146,0.6131,0.6044,0.6225,0.5811,0.5772,0.5419,0.5394,0.5214,0.5072,0.6035,0.6031,0.6027,0,0.4654,0.4667,0.4767,0.4822,0.4897,0.5021,0.511,0.5253,0.5355,0.5504,0.558,0.5679,0.5717,0.5873,0.5876,0.5952,0.5888,0.5698,0.5588,0.5348,0.5337,0.519,0.5077,0.5291,0.5281,0.5274,0.5267,0,0.4778,0.4754,0.4828,0.4862,0.4947,0.5042,0.5184,0.524,0.5391,0.5435,0.5489,0.5501,0.5564,0.5425,0.5482,0.5507,0.5363,0.553,0.5463,0.4879,0.4547,0.4432,0.5218,0.5198,0.5205,0.521,0.5214,0.5217,0.4905,0.4928,0.4927,0.4946,0.5011,0.5027,0.5019,0.5119,0.5155,0.512,0.5287,0.5136,0.5097,0.5055,0.5059,0.4784,0.4867,0.4617,0.4639,0.4538,0.4285,0.4824,0.4716,0.4719,0.4723,0.4726,0.4729,0,0.5039,0.4991,0.5022,0.4977,0.4938,0.4975,0.5029,0.4917,0.4804,0.482,0.4753,0.4555,0.4391,0.436,0.4155,0.3967,0.3841,0.3855,0.3634,0.36,0.424,0.4091,0.3622,0.3622,0.3623,0.3623,0.3623,0.3623,0.5119,0.5092,0.4992,0.4869,0.4815,0.4648,0.4593,0.4419,0.4353,0.4036,0.3826,0.3801,0.3875,0.3775,0.3528,0.343,0.3235,0.2994,0.3118,0.3621,0.3696,0.3767,0.362,0.306,0.3059,0.2286,0.228,0.2276]},{"header":{"parameterUnit":"m.s-1","parameterCategory":2,"la1":30.2991,"la2":30.254,"lo1":-89.0895,"lo2":-89.0444,"dy":0.0017,"dx":0.0017,"nx":28,"ny":28,"refTime":"2025-07-20T09:00:00:Z","depth":"0","parameterNumber":3,"parameterNumberName":"V-component_of_CURRENTS"},"data":[0,0,0,0,0,0,0,0,0,0,0,0,0,0,0,0,0,0,0,0,0,0,0,0,0,0,0,0,0,0,0,0,0,0,0,0,0,0,0,0,0,0,0,0,0,0,0,0,0,0,0,0,0,0,0,0,0,0,0.0471,0.0471,0,0.039,0.0389,0.0388,0.0329,0.0329,0.0329,0.0328,0.0234,0.0232,0.023,0,0,0,0,0,0,0,0,0,0,0,0,0,0.0509,0.0509,0.0472,0.0471,0.047,0.039,0.0389,0.0388,0.0329,0.0329,0.0328,0.0328,0.0235,0.0232,0.0229,0,0,0,0,0,0,0,0,0,0,0,0,0,0.0466,0.0509,0.0472,0.0431,0.0427,0.039,0.0389,0.0387,0.033,0.0329,0.0328,0.0328,0.0235,0.0232,0.0229,0.0222,0,0,0.0219,0.0218,0,0,0,0,0,0,0,0,0.0469,0.0465,0.0438,0.0434,0.0429,0.037,0.0367,0.0332,0.033,0.0366,0.0328,0.0327,0.0279,0.0272,0.0258,0.0218,0.0214,0.0219,0.0217,0.0216,0.0215,0,0,0,0,0,0,0,0.0472,0.0468,0.0439,0.0437,0.0432,0.0394,0.0388,0.036,0.0326,0.0363,0.0358,0.0351,0.0276,0.0261,0.0255,0.0212,0.0219,0.0216,0.0214,0.0213,0.0172,0.0172,0,0,0,0,0,0,0.0487,0.0471,0.0441,0.0436,0.0448,0.0394,0.0387,0.0389,0.0327,0.0317,0.0351,0.0348,0.0266,0.0259,0.0251,0.0267,0.0216,0.0213,0.0211,0.0171,0.0172,0.0173,0,0,0,0,0,0,0.0489,0.0486,0.0444,0.0451,0.0443,0.0395,0.0397,0.0388,0.0377,0.0318,0.0308,0.035,0.0266,0.0256,0.0234,0.0262,0.0211,0.0209,0.017,0.0171,0.0172,0.0281,0,0,0,0,0,0,0.049,0.0487,0.0496,0.0453,0.0444,0.0441,0.0397,0.0387,0.0373,0.0368,0.0314,0.0304,0.0264,0.0239,0.0231,0.0256,0.0206,0.0169,0.017,0.0172,0.0276,0.0285,0.0293,0,0,0,0,0,0.0492,0.0515,0.0497,0.0494,0.0457,0.0442,0.0435,0.0396,0.0374,0.0381,0.0339,0.0306,0.0243,0.0238,0.0228,0.0253,0.0168,0.017,0.0172,0.0272,0.0284,0.0293,0,0,0,0,0,0,0.0537,0.051,0.049,0.0503,0.048,0.0433,0.0435,0.0406,0.0378,0.0375,0.0314,0.0302,0.0291,0.0257,0.0252,0.0244,0.0201,0.0201,0.0281,0.0291,0.03,0.0338,0.0203,0,0,0,0,0,0.0551,0.0558,0.0525,0.0534,0.0528,0.0482,0.0471,0.0449,0.0416,0.0403,0.0357,0.0317,0.029,0.028,0.0244,0.0244,0.0237,0.0253,0.0262,0.027,0.0293,0.0325,0.034,0.0178,0.0178,0.0178,0,0,0.0569,0.0555,0.0558,0.0543,0.052,0.0526,0.0475,0.0472,0.0474,0.0398,0.0385,0.0342,0.0294,0.0289,0.0283,0.0267,0.0306,0.0272,0.0279,0.0299,0.0328,0.0344,0.0359,0.018,0.0179,0.0179,0,0,0.0616,0.0599,0.0625,0.0612,0.0593,0.0566,0.0571,0.0532,0.0515,0.0496,0.0446,0.0433,0.0369,0.036,0.0343,0.0383,0.0345,0.0357,0.0441,0.0471,0.0486,0.0498,0.0491,0.0502,0.0369,0.037,0.037,0,0.0638,0.0663,0.0629,0.0648,0.0646,0.0591,0.0618,0.0595,0.055,0.0553,0.0506,0.0462,0.0413,0.0442,0.0441,0.0408,0.04,0.0407,0.0487,0.0499,0.051,0.05,0.0511,0.0375,0.0374,0.0374,0.0373,0,0.0702,0.072,0.0735,0.0738,0.0732,0.0748,0.0713,0.0705,0.0667,0.0644,0.065,0.0594,0.0581,0.0554,0.0499,0.0558,0.0517,0.0491,0.0469,0.0534,0.0517,0.0527,0.0383,0.0381,0.0379,0.0378,0,0,0.0752,0.0779,0.0781,0.0803,0.0784,0.079,0.0797,0.0801,0.0831,0.0779,0.0832,0.0766,0.0748,0.0729,0.0682,0.0693,0.0739,0.0625,0.0623,0.0633,0.0781,0.0692,0.0693,0.0727,0.073,0.0732,0.0731,0,0.0811,0.0878,0.0867,0.0918,0.0948,0.0909,0.0927,0.092,0.0903,0.0937,0.0906,0.0927,0.0815,0.083,0.0824,0.077,0.0772,0.074,0.0703,0.0702,0.0629,0.0705,0.0669,0.0661,0.074,0.0742,0.0743,0,0.0865,0.0909,0.0981,0.1024,0.1034,0.1057,0.1089,0.1101,0.1126,0.1121,0.1142,0.1114,0.1133,0.1033,0.0992,0.0974,0.0887,0.0829,0.0828,0.0721,0.0633,0.0611,0.0675,0.0511,0.0757,0.0756,0.0755,0,0.0909,0.0976,0.1042,0.1053,0.1097,0.1129,0.1149,0.1166,0.1212,0.1267,0.1326,0.1313,0.1339,0.1256,0.1108,0.1063,0.1057,0.0986,0.0824,0.0815,0.0767,0.0749,0.0687,0.0968,0.0968,0.0968,0.0968,0,0.0961,0.101,0.1079,0.1113,0.1206,0.1206,0.1295,0.1313,0.1392,0.15,0.1448,0.1546,0.1395,0.1361,0.1204,0.1052,0.1135,0.0862,0.0828,0.0797,0.0783,0.062,0.0511,0.0968,0.0968,0.0968,0.0968,0,0.0989,0.1026,0.1114,0.1197,0.1228,0.1296,0.1394,0.1475,0.1528,0.1684,0.1725,0.1736,0.1689,0.1516,0.1382,0.1178,0.0929,0.096,0.0908,0.0866,0.0524,0.0421,0.0308,0.0235,0.0788,0.0786,0.0784,0,0.1016,0.1065,0.1178,0.1251,0.1298,0.1394,0.1473,0.1537,0.165,0.1817,0.1933,0.1927,0.196,0.1707,0.1362,0.1085,0.0906,0.082,0.0719,0.0524,0.0385,0.0316,0.0259,0.0691,0.0688,0.0687,0.0685,0,0.1083,0.1116,0.1195,0.1339,0.1443,0.1559,0.1697,0.1807,0.1927,0.2075,0.2273,0.232,0.2057,0.1749,0.1306,0.1097,0.0678,0.0769,0.0612,0.0347,0.0227,0.0135,0.0642,0.0669,0.067,0.0672,0.0672,0.0673,0.1141,0.1204,0.131,0.144,0.1568,0.1742,0.1856,0.2032,0.2235,0.2476,0.2513,0.2596,0.2097,0.1498,0.1182,0.0533,0.0555,0.0322,0.0227,0.0185,0.0078,0.052,0.0473,0.0473,0.0474,0.0474,0.0474,0,0.1216,0.1284,0.1411,0.1573,0.1724,0.1777,0.2017,0.215,0.2409,0.2616,0.2773,0.2547,0.1973,0.137,0.0484,0.0066,-0.0055,-0.0141,-0.0227,-0.0249,0.0195,0.0152,-0.0021,-0.0021,-0.0021,-0.002,-0.002,-0.002,0.1259,0.1377,0.1426,0.167,0.1795,0.2001,0.2143,0.2351,0.2531,0.2738,0.2754,0.2743,0.2234,0.0783,-0.0156,-0.0354,-0.0598,-0.0695,-0.0778,-0.0477,-0.044,-0.0404,-0.0467,-0.0766,-0.0768,-0.1164,-0.1168,-0.1172]}],[{"header":{"parameterUnit":"m.s-1","parameterCategory":2,"la1":30.2991,"la2":30.254,"lo1":-89.0895,"lo2":-89.0444,"dy":0.0017,"dx":0.0017,"nx":28,"ny":28,"refTime":"2025-07-20T09:00:00:Z","depth":"2","parameterNumber":2,"parameterNumberName":"U-component_of_CURRENTS"},"data":[0,0,0,0,0,0,0,0,0,0,0,0,0,0,0,0,0,0,0,0,0,0,0,0,0,0,0,0,0,0,0,0,0,0,0,0,0,0,0,0,0,0,0,0,0,0,0,0,0,0,0,0,0,0,0,0,0,0,0.3082,0.3082,0,0.3105,0.3105,0.3105,0.3132,0.3133,0.3133,0.3133,0.3313,0.3317,0.3321,0,0,0,0,0,0,0,0,0,0,0,0,0,0.3019,0.302,0.3082,0.3082,0.3082,0.3105,0.3105,0.3105,0.3132,0.3133,0.3133,0.3134,0.3311,0.3316,0.3322,0,0,0,0,0,0,0,0,0,0,0,0,0,0.3045,0.3021,0.3081,0.3098,0.31,0.3105,0.3105,0.3106,0.3132,0.3133,0.3133,0.3134,0.3309,0.3316,0.3322,0.3351,0,0,0.3342,0.3345,0,0,0,0,0,0,0,0,0.3043,0.3047,0.3095,0.3097,0.3099,0.3116,0.3149,0.3195,0.3132,0.312,0.3133,0.3134,0.3261,0.3272,0.3272,0.3359,0.3367,0.3343,0.3347,0.335,0.3352,0,0,0,0,0,0,0,0.3041,0.3046,0.3091,0.3096,0.3098,0.309,0.3095,0.3157,0.319,0.3121,0.3123,0.3125,0.3263,0.3266,0.3277,0.3369,0.3343,0.3349,0.3353,0.3355,0.3448,0.3447,0,0,0,0,0,0,0.304,0.3044,0.309,0.3091,0.3072,0.3091,0.3097,0.311,0.3186,0.3196,0.3125,0.3127,0.3254,0.3269,0.3284,0.3409,0.335,0.3356,0.336,0.345,0.3448,0.3446,0,0,0,0,0,0,0.3039,0.3045,0.3089,0.3068,0.3073,0.3092,0.3107,0.311,0.3139,0.3187,0.3201,0.3153,0.3255,0.3275,0.3319,0.3413,0.3359,0.3365,0.3451,0.3449,0.3447,0.3605,0,0,0,0,0,0,0.3037,0.3044,0.3066,0.3068,0.3074,0.3102,0.3106,0.311,0.3138,0.3141,0.3215,0.323,0.3257,0.3309,0.3326,0.3421,0.337,0.3453,0.345,0.3448,0.3602,0.3608,0.3614,0,0,0,0,0,0.3035,0.3053,0.3067,0.3073,0.3099,0.3103,0.3106,0.312,0.3139,0.3149,0.3175,0.3229,0.3303,0.3313,0.3333,0.3434,0.3455,0.3451,0.3448,0.3599,0.3607,0.3614,0,0,0,0,0,0,0.3039,0.3057,0.3072,0.3097,0.3107,0.3108,0.3131,0.3136,0.3164,0.3187,0.3222,0.3238,0.3318,0.3313,0.3323,0.343,0.3385,0.3385,0.3492,0.35,0.3507,0.3513,0.3376,0,0,0,0,0,0.305,0.3065,0.3081,0.31,0.3119,0.3132,0.3143,0.3155,0.3172,0.3187,0.3236,0.3271,0.3313,0.3355,0.3385,0.3456,0.3479,0.3515,0.3522,0.3528,0.3534,0.3661,0.3684,0.3435,0.3435,0.3435,0,0,0.3051,0.3067,0.3074,0.3101,0.3123,0.3156,0.3142,0.3173,0.3212,0.3207,0.3291,0.3312,0.3327,0.3402,0.3438,0.3422,0.3596,0.3524,0.3531,0.3533,0.3661,0.3687,0.371,0.3433,0.3433,0.3434,0,0,0.3059,0.3091,0.3113,0.3134,0.3172,0.3186,0.3202,0.3233,0.3267,0.332,0.3331,0.3369,0.345,0.347,0.3491,0.3534,0.3624,0.3569,0.3639,0.3765,0.379,0.3812,0.384,0.3863,0.3579,0.358,0.358,0,0.3065,0.3096,0.3117,0.3155,0.3175,0.3208,0.324,0.3285,0.3323,0.3365,0.3363,0.3464,0.3475,0.3567,0.3573,0.3565,0.3633,0.3637,0.3787,0.3809,0.3829,0.3852,0.3877,0.3587,0.3586,0.3585,0.3584,0,0.3096,0.3128,0.3149,0.3211,0.3237,0.3267,0.3327,0.3395,0.3445,0.3477,0.3581,0.3585,0.3641,0.3659,0.3642,0.3788,0.3786,0.3794,0.38,0.3867,0.3882,0.3905,0.3597,0.3594,0.3592,0.359,0,0,0.31,0.3151,0.3167,0.3185,0.3266,0.3279,0.3396,0.3476,0.3566,0.3629,0.3729,0.3773,0.3796,0.3809,0.3817,0.391,0.4078,0.3933,0.3937,0.4013,0.4341,0.4168,0.4175,0.4183,0.4188,0.4192,0.4287,0,0.3122,0.3159,0.3196,0.3247,0.3276,0.3354,0.3442,0.3534,0.3634,0.3752,0.3803,0.3886,0.3854,0.3902,0.4001,0.4059,0.4152,0.4048,0.4215,0.4216,0.4104,0.42,0.3864,0.3908,0.4308,0.4312,0.4315,0,0.316,0.3174,0.3209,0.3253,0.3279,0.3322,0.3478,0.3556,0.3745,0.3837,0.3964,0.4021,0.4128,0.4103,0.4282,0.425,0.4308,0.4346,0.4352,0.4155,0.4087,0.3904,0.3934,0.4352,0.4349,0.4346,0.4344,0,0.3142,0.3185,0.3196,0.3216,0.3294,0.3344,0.3397,0.3579,0.3694,0.3897,0.4032,0.4158,0.4241,0.4369,0.4429,0.441,0.4635,0.46,0.4487,0.4472,0.4186,0.4136,0.476,0.476,0.476,0.476,0.476,0,0.3142,0.3161,0.3179,0.3194,0.324,0.3299,0.3421,0.3535,0.3739,0.3893,0.4056,0.421,0.4342,0.448,0.4517,0.4561,0.4709,0.4512,0.4513,0.4216,0.417,0.4549,0.4524,0.4763,0.4762,0.4762,0.4761,0,0.3128,0.3145,0.3171,0.322,0.3235,0.3271,0.3414,0.3523,0.3731,0.3959,0.4036,0.4289,0.4434,0.4537,0.4697,0.4642,0.4702,0.4688,0.4271,0.4219,0.4421,0.4401,0.455,0.4545,0.4541,0.4538,0.4535,0,0.3079,0.3109,0.3173,0.3194,0.3211,0.3275,0.3344,0.3512,0.364,0.3998,0.4094,0.4322,0.442,0.4552,0.451,0.4515,0.4657,0.4203,0.4067,0.4428,0.4414,0.44,0.4386,0.3734,0.3724,0.3717,0.3711,0,0.3012,0.3086,0.3119,0.3202,0.3245,0.3271,0.3358,0.3451,0.3683,0.3864,0.406,0.4153,0.4292,0.4109,0.4125,0.4093,0.4157,0.4045,0.462,0.3822,0.3662,0.3646,0.366,0.3644,0.3651,0.3656,0.3659,0.3662,0.2968,0.3,0.3101,0.3173,0.3245,0.3235,0.3202,0.3306,0.3422,0.3593,0.3805,0.3825,0.386,0.3659,0.3565,0.3505,0.3772,0.3611,0.3633,0.3664,0.3537,0.3378,0.3277,0.3282,0.3285,0.3289,0.3292,0,0.2857,0.2943,0.3039,0.3096,0.3131,0.3185,0.3202,0.3113,0.3121,0.3296,0.3366,0.3111,0.299,0.3066,0.285,0.2822,0.2799,0.2725,0.2677,0.2745,0.2806,0.2634,0.2136,0.2132,0.2128,0.2125,0,0,0.2807,0.2872,0.2957,0.2967,0.2999,0.2896,0.2842,0.2745,0.2768,0.2685,0.2678,0.287,0.2978,0.2521,0.2454,0.2263,0.249,0.2178,0.3113,0.3128,0.3184,0.3331,0.3144,0,0,0,0,0]},{"header":{"parameterUnit":"m.s-1","parameterCategory":2,"la1":30.2991,"la2":30.254,"lo1":-89.0895,"lo2":-89.0444,"dy":0.0017,"dx":0.0017,"nx":28,"ny":28,"refTime":"2025-07-20T09:00:00:Z","depth":"2","parameterNumber":3,"parameterNumberName":"V-component_of_CURRENTS"},"data":[0,0,0,0,0,0,0,0,0,0,0,0,0,0,0,0,0,0,0,0,0,0,0,0,0,0,0,0,0,0,0,0,0,0,0,0,0,0,0,0,0,0,0,0,0,0,0,0,0,0,0,0,0,0,0,0,0,0,0.0206,0.0205,0,0.0119,0.0118,0.0117,0.0073,0.0073,0.0073,0.0073,-0.0033,-0.0036,-0.0039,0,0,0,0,0,0,0,0,0,0,0,0,0,0.0245,0.0245,0.0206,0.0205,0.0204,0.0119,0.0118,0.0117,0.0073,0.0073,0.0073,0.0073,-0.0033,-0.0036,-0.0039,0,0,0,0,0,0,0,0,0,0,0,0,0,0.0199,0.0245,0.0206,0.0173,0.0169,0.012,0.0118,0.0116,0.0073,0.0073,0.0073,0.0073,-0.0031,-0.0036,-0.004,-0.007,0,0,-0.0053,-0.0055,0,0,0,0,0,0,0,0,0.0202,0.0198,0.0178,0.0175,0.0171,0.0108,0.0093,0.0054,0.0073,0.0108,0.0073,0.0073,0.0013,0.0005,-0.0013,-0.0075,-0.0079,-0.0054,-0.0056,-0.0058,-0.006,0,0,0,0,0,0,0,0.0205,0.02,0.017,0.0177,0.0173,0.0132,0.0126,0.0085,0.0059,0.0105,0.0102,0.0094,0.001,-0.0009,-0.0016,-0.0081,-0.0054,-0.0058,-0.006,-0.0062,-0.0128,-0.0127,0,0,0,0,0,0,0.0223,0.0204,0.0173,0.0168,0.0188,0.0132,0.0125,0.0127,0.006,0.0051,0.0094,0.0093,-0.0002,-0.0011,-0.002,-0.0017,-0.0058,-0.0062,-0.0065,-0.0129,-0.0128,-0.0127,0,0,0,0,0,0,0.0224,0.0221,0.0176,0.0184,0.0176,0.0132,0.0133,0.0125,0.0111,0.0052,0.0042,0.009,-0.0002,-0.0014,-0.0038,-0.0023,-0.0064,-0.0068,-0.013,-0.0128,-0.0127,-0.0037,0,0,0,0,0,0,0.0226,0.0223,0.0228,0.0186,0.0176,0.016,0.0133,0.0123,0.0106,0.0103,0.0045,0.0035,-0.0003,-0.0031,-0.0042,-0.003,-0.0072,-0.0131,-0.0129,-0.0128,-0.0041,-0.0033,-0.0026,0,0,0,0,0,0.0228,0.0245,0.0229,0.0225,0.0186,0.0161,0.0152,0.0119,0.0106,0.0105,0.0074,0.0037,-0.0028,-0.0033,-0.0047,-0.0036,-0.0132,-0.013,-0.0128,-0.0045,-0.0035,-0.0026,0,0,0,0,0,0,0.0266,0.024,0.0223,0.0231,0.0201,0.0154,0.0152,0.0125,0.0097,0.01,0.0043,0.0031,0.0015,-0.0021,-0.0026,-0.0048,-0.0085,-0.0085,-0.0017,-0.0008,-0.0001,0.0028,-0.0075,0,0,0,0,0,0.0276,0.0281,0.0245,0.0249,0.0242,0.0196,0.0181,0.016,0.0129,0.0117,0.0074,0.0037,0.001,-0.0006,-0.0041,-0.0056,-0.0085,-0.0056,-0.0048,-0.0041,-0.0026,-0.0054,-0.0047,-0.012,-0.012,-0.012,0,0,0.0287,0.0277,0.0277,0.0256,0.0233,0.0233,0.0188,0.0178,0.0179,0.0109,0.01,0.0057,0.0011,-0.0001,-0.0011,-0.0027,-0.0036,-0.0039,-0.0033,-0.0021,-0.0051,-0.0044,-0.0037,-0.0119,-0.0119,-0.0119,0,0,0.0324,0.031,0.0329,0.0311,0.0288,0.0264,0.0266,0.0224,0.021,0.0188,0.015,0.0123,0.0066,0.0047,0.0028,0.0056,0.0004,0.0042,0.0104,0.0078,0.0084,0.0089,0.0064,0.0066,0.0049,0.0049,0.0049,0,0.0338,0.036,0.0328,0.0342,0.0339,0.0286,0.0306,0.0282,0.0236,0.0239,0.02,0.0143,0.0092,0.01,0.0106,0.0074,0.0051,0.0074,0.0089,0.0093,0.0097,0.007,0.0071,0.0054,0.0053,0.0053,0.0052,0,0.0391,0.0401,0.0413,0.0416,0.0408,0.0415,0.0385,0.0378,0.0347,0.0322,0.0311,0.0241,0.0214,0.0189,0.0149,0.016,0.0134,0.01,0.0069,0.011,0.0078,0.0078,0.006,0.0058,0.0057,0.0056,0,0,0.043,0.0449,0.0451,0.0472,0.0451,0.0457,0.0468,0.047,0.0502,0.0433,0.0467,0.0389,0.0351,0.0329,0.0277,0.0247,0.0236,0.019,0.0187,0.0172,0.0183,0.0137,0.0131,0.0206,0.0206,0.0206,0.0152,0,0.0478,0.054,0.0526,0.0571,0.0599,0.0565,0.0588,0.0583,0.0566,0.0583,0.0515,0.0515,0.0407,0.0406,0.0355,0.0273,0.0239,0.0254,0.014,0.0137,0.0096,0.013,0.0159,0.0111,0.0151,0.0151,0.0151,0,0.0526,0.0568,0.0633,0.0674,0.0685,0.07,0.0746,0.0765,0.0771,0.0761,0.0736,0.0681,0.0632,0.0537,0.0401,0.0417,0.031,0.0233,0.0228,0.0156,0.009,0.0074,0.0107,0.0149,0.015,0.015,0.015,0,0.0583,0.0633,0.0699,0.0707,0.0747,0.0775,0.0801,0.0821,0.0878,0.0888,0.0932,0.0834,0.082,0.0664,0.047,0.0443,0.0326,0.0266,0.0126,0.0121,0.0108,0.0102,0.018,0.018,0.0181,0.0181,0.0181,0,0.0634,0.068,0.0733,0.0766,0.086,0.0857,0.0964,0.0972,0.1035,0.1138,0.1038,0.1086,0.0851,0.0747,0.0541,0.0334,0.0371,0.0149,0.0109,0.0139,0.0137,0.0137,0.0133,0.0179,0.0179,0.0179,0.018,0,0.0673,0.0704,0.0785,0.0855,0.0886,0.0956,0.1077,0.1171,0.1204,0.1339,0.1355,0.1285,0.1137,0.0894,0.0654,0.045,0.0243,0.0162,0.0211,0.0176,0.0037,0.0038,0.0002,-0.0,-0.0002,-0.0003,-0.0005,0,0.07,0.0746,0.0858,0.0934,0.0966,0.1082,0.1185,0.1248,0.1364,0.1467,0.155,0.1451,0.1384,0.1005,0.0641,0.0288,0.0246,0.0092,0.003,0.0057,0.0021,0.0025,0.0028,0.005,0.0049,0.0049,0.0048,0,0.0756,0.0792,0.0869,0.1028,0.114,0.1291,0.1434,0.1543,0.1654,0.1739,0.1818,0.1762,0.1426,0.1059,0.0587,0.0347,0.0139,0.0068,0.0106,0.0084,0.0096,0.0063,0.0066,0.0044,0.0044,0.0045,0.0045,0.0045,0.0806,0.0871,0.0985,0.1131,0.1276,0.147,0.1594,0.1746,0.1903,0.2018,0.1978,0.1888,0.1515,0.0876,0.0494,0.01,0.0104,-0.0047,-0.0042,-0.0038,-0.0029,-0.0021,-0.0094,-0.0094,-0.0094,-0.0094,-0.0095,0,0.0892,0.0966,0.1094,0.1275,0.1438,0.1509,0.1748,0.1849,0.2011,0.2095,0.2101,0.1717,0.1333,0.0921,0.0333,-0.0029,-0.0048,-0.0137,-0.0075,-0.0068,-0.0063,-0.0053,-0.0126,-0.0127,-0.0128,-0.0129,0,0,0.0945,0.1074,0.1129,0.1377,0.1509,0.1718,0.1848,0.1972,0.2057,0.2075,0.2024,0.1915,0.1434,0.1002,0.053,0.0209,0.0149,0.0138,0.0199,0.0334,0.0344,0.0022,0.0048,0,0,0,0,0]}],[{"header":{"parameterUnit":"m.s-1","parameterCategory":2,"la1":30.2991,"la2":30.254,"lo1":-89.0895,"lo2":-89.0444,"dy":0.0017,"dx":0.0017,"nx":28,"ny":28,"refTime":"2025-07-20T09:00:00:Z","depth":"4","parameterNumber":2,"parameterNumberName":"U-component_of_CURRENTS"},"data":[0,0,0,0,0,0,0,0,0,0,0,0,0,0,0,0,0,0,0,0,0,0,0,0,0,0,0,0,0,0,0,0,0,0,0,0,0,0,0,0,0,0,0,0,0,0,0,0,0,0,0,0,0,0,0,0,0,0,0.1684,0.1685,0,0.1719,0.1718,0.1718,0.1745,0.1746,0.1747,0.1748,0.1806,0.1806,0.1807,0,0,0,0,0,0,0,0,0,0,0,0,0,0.16,0.1601,0.1684,0.1685,0.1686,0.1719,0.1718,0.1718,0.1745,0.1746,0.1748,0.1749,0.1805,0.1806,0.1807,0,0,0,0,0,0,0,0,0,0,0,0,0,0.1628,0.1601,0.1684,0.171,0.1713,0.1719,0.1718,0.1718,0.1745,0.1746,0.1748,0.1749,0.1805,0.1806,0.1807,0.1781,0,0,0.181,0.181,0,0,0,0,0,0,0,0,0.1626,0.163,0.1705,0.1708,0.1712,0.1737,0.171,0.1743,0.1745,0.1724,0.1748,0.175,0.1789,0.1791,0.1782,0.1784,0.1787,0.181,0.181,0.181,0.1811,0,0,0,0,0,0,0,0.1624,0.1628,0.1689,0.1706,0.1711,0.1706,0.1711,0.1716,0.1741,0.1726,0.173,0.1747,0.179,0.1781,0.1784,0.1787,0.181,0.181,0.1811,0.1811,0.1927,0.1929,0,0,0,0,0,0,0.1637,0.1627,0.1688,0.1691,0.1681,0.1707,0.1713,0.172,0.1741,0.1748,0.1745,0.1748,0.1779,0.1783,0.1786,0.188,0.181,0.1811,0.1812,0.1924,0.1927,0.193,0,0,0,0,0,0,0.1635,0.1642,0.1687,0.1667,0.1673,0.1708,0.1716,0.172,0.1753,0.1757,0.1763,0.178,0.178,0.1785,0.1832,0.1878,0.1812,0.1812,0.1921,0.1925,0.1929,0.199,0,0,0,0,0,0,0.1632,0.164,0.1661,0.1667,0.1675,0.1708,0.1716,0.172,0.1763,0.1767,0.1788,0.1792,0.1782,0.1831,0.1833,0.1878,0.1813,0.1918,0.1923,0.1927,0.1985,0.1995,0.2004,0,0,0,0,0,0.1629,0.1641,0.1661,0.167,0.1699,0.1709,0.1712,0.1736,0.1763,0.1772,0.1804,0.1794,0.1864,0.1833,0.1835,0.1882,0.1915,0.1921,0.1927,0.198,0.1993,0.2004,0,0,0,0,0,0,0.1615,0.1646,0.1668,0.1692,0.1713,0.1718,0.1737,0.1758,0.1787,0.1811,0.1813,0.1819,0.1884,0.1876,0.1842,0.1933,0.1893,0.1899,0.1933,0.1945,0.1955,0.197,0.1814,0,0,0,0,0,0.1624,0.1643,0.167,0.1692,0.1708,0.1732,0.1748,0.177,0.1794,0.181,0.1829,0.1863,0.19,0.1918,0.1941,0.1976,0.1984,0.2014,0.2024,0.2032,0.2049,0.2094,0.2109,0.1949,0.1949,0.1949,0,0,0.163,0.1648,0.1664,0.1692,0.1712,0.1734,0.1744,0.1781,0.1813,0.1812,0.1867,0.19,0.1921,0.1972,0.2,0.1973,0.2085,0.2039,0.2046,0.2059,0.2102,0.2117,0.2131,0.1953,0.1952,0.1951,0,0,0.1637,0.1665,0.1685,0.1704,0.1749,0.1759,0.1783,0.1815,0.1846,0.1894,0.1924,0.1982,0.2016,0.2046,0.2064,0.2141,0.2142,0.2166,0.2218,0.2262,0.2275,0.2287,0.2322,0.2336,0.2163,0.2163,0.2163,0,0.165,0.1668,0.1692,0.1714,0.1737,0.1778,0.1804,0.1835,0.1884,0.1927,0.1924,0.2037,0.2047,0.2133,0.2168,0.2162,0.2193,0.2165,0.2274,0.2285,0.2296,0.2329,0.2344,0.2167,0.2166,0.2166,0.2166,0,0.1657,0.169,0.1701,0.1742,0.1769,0.1794,0.1845,0.1892,0.1939,0.1982,0.2088,0.2112,0.2186,0.2201,0.2206,0.231,0.231,0.2283,0.2236,0.2316,0.2345,0.236,0.2172,0.2171,0.217,0.2169,0,0,0.1638,0.1695,0.1705,0.1729,0.1786,0.1803,0.1874,0.1943,0.2014,0.2077,0.2168,0.2239,0.2294,0.2322,0.2351,0.2384,0.2479,0.2381,0.2381,0.2404,0.2593,0.2427,0.2426,0.2482,0.2485,0.2487,0.2583,0,0.1639,0.1672,0.1708,0.1755,0.1775,0.1838,0.1897,0.1981,0.2054,0.2153,0.2231,0.2338,0.233,0.2399,0.2434,0.2482,0.2521,0.2456,0.2523,0.2525,0.2358,0.2438,0.2496,0.2594,0.2597,0.2599,0.2601,0,0.1632,0.1652,0.1695,0.1763,0.1782,0.1829,0.1937,0.2,0.2154,0.2224,0.235,0.2438,0.2559,0.2519,0.2632,0.2603,0.2618,0.2623,0.2626,0.246,0.2385,0.25,0.2627,0.2625,0.2623,0.2621,0.2619,0,0.1584,0.1645,0.1675,0.1695,0.1782,0.1837,0.1899,0.2038,0.2124,0.2309,0.2404,0.2546,0.2657,0.2692,0.2741,0.2714,0.2829,0.2776,0.2637,0.2626,0.2716,0.2703,0.2844,0.2844,0.2844,0.2843,0.2843,0,0.1543,0.157,0.1664,0.1678,0.1739,0.1823,0.193,0.2016,0.2187,0.2306,0.2462,0.2574,0.2715,0.2807,0.2794,0.2767,0.2878,0.2668,0.2644,0.2741,0.2729,0.2726,0.2711,0.2847,0.2846,0.2845,0.2845,0,0.1468,0.1534,0.1574,0.1677,0.172,0.177,0.1938,0.2009,0.2189,0.2351,0.2437,0.266,0.2775,0.2859,0.294,0.2837,0.2814,0.2773,0.2897,0.2876,0.2568,0.2556,0.2623,0.2618,0.2614,0.261,0.2607,0,0.1417,0.1439,0.1557,0.1599,0.1649,0.175,0.1817,0.1993,0.2073,0.237,0.2421,0.2662,0.2777,0.2758,0.2836,0.2815,0.2768,0.2741,0.2628,0.2578,0.2549,0.2543,0.2537,0.26,0.2599,0.2598,0.2597,0,0.1312,0.1385,0.1424,0.1523,0.1599,0.1664,0.1775,0.1831,0.2046,0.2234,0.2385,0.2488,0.2615,0.2672,0.2698,0.266,0.2742,0.2696,0.2703,0.2596,0.2551,0.2526,0.2525,0.2583,0.2585,0.2586,0.2587,0,0.1245,0.1254,0.1348,0.1433,0.1525,0.1563,0.1626,0.1727,0.1844,0.215,0.2198,0.2415,0.2613,0.2593,0.2595,0.2573,0.2513,0.2396,0.2418,0.2434,0.2322,0.2233,0.2164,0,0,0,0,0,0.1139,0.1163,0.1248,0.1326,0.1418,0.148,0.1596,0.1664,0.1872,0.192,0.2064,0.2171,0.2266,0.2361,0.2295,0.2473,0.2495,0.2381,0.2365,0.2502,0.2519,0.2399,0,0,0,0,0,0,0.1075,0.1123,0.1208,0.1249,0.1286,0.1355,0.1428,0.1549,0.1574,0.1803,0.1854,0.2035,0.2133,0.2297,0.2263,0.2284,0.2223,0.2502,0.2495,0.2493,0.2508,0.2521,0.2404,0,0,0,0,0]},{"header":{"parameterUnit":"m.s-1","parameterCategory":2,"la1":30.2991,"la2":30.254,"lo1":-89.0895,"lo2":-89.0444,"dy":0.0017,"dx":0.0017,"nx":28,"ny":28,"refTime":"2025-07-20T09:00:00:Z","depth":"4","parameterNumber":3,"parameterNumberName":"V-component_of_CURRENTS"},"data":[0,0,0,0,0,0,0,0,0,0,0,0,0,0,0,0,0,0,0,0,0,0,0,0,0,0,0,0,0,0,0,0,0,0,0,0,0,0,0,0,0,0,0,0,0,0,0,0,0,0,0,0,0,0,0,0,0,0,0.0158,0.0158,0,0.0111,0.0111,0.011,0.008,0.008,0.008,0.008,0.0033,0.0032,0.0031,0,0,0,0,0,0,0,0,0,0,0,0,0,0.0169,0.0169,0.0158,0.0158,0.0157,0.0111,0.0111,0.011,0.008,0.008,0.008,0.008,0.0034,0.0032,0.0031,0,0,0,0,0,0,0,0,0,0,0,0,0,0.0146,0.0169,0.0158,0.0138,0.0135,0.0112,0.0111,0.011,0.008,0.008,0.008,0.008,0.0034,0.0032,0.0031,0.0022,0,0,0.0025,0.0025,0,0,0,0,0,0,0,0,0.0148,0.0146,0.0141,0.0139,0.0136,0.0102,0.0097,0.0081,0.008,0.01,0.008,0.008,0.0057,0.0054,0.0044,0.002,0.0018,0.0025,0.0024,0.0023,0.0023,0,0,0,0,0,0,0,0.0149,0.0147,0.0138,0.0141,0.0138,0.0113,0.011,0.0094,0.0079,0.0098,0.0096,0.0093,0.0056,0.0045,0.0042,0.0017,0.0025,0.0024,0.0023,0.0022,-0.0022,-0.0022,0,0,0,0,0,0,0.016,0.0149,0.014,0.0137,0.0143,0.0113,0.0109,0.0113,0.0079,0.0074,0.0093,0.0092,0.0048,0.0044,0.0041,0.0047,0.0023,0.0022,0.0021,-0.0022,-0.0022,-0.0022,0,0,0,0,0,0,0.0161,0.016,0.0142,0.0142,0.0138,0.0113,0.0117,0.0112,0.0106,0.0075,0.007,0.0093,0.0048,0.0043,0.0028,0.0044,0.0021,0.0019,-0.0022,-0.0022,-0.0022,0.0048,0,0,0,0,0,0,0.0161,0.0161,0.0168,0.0144,0.0139,0.0135,0.0117,0.0111,0.0104,0.0102,0.0073,0.0069,0.0048,0.0031,0.0026,0.0041,0.0018,-0.0022,-0.0022,-0.0022,0.0045,0.005,0.0053,0,0,0,0,0,0.0162,0.0178,0.0168,0.0167,0.0149,0.0135,0.0131,0.0111,0.0104,0.0105,0.0083,0.007,0.0026,0.0029,0.0024,0.0039,-0.0021,-0.0022,-0.0022,0.0044,0.0049,0.0053,0,0,0,0,0,0,0.0187,0.0176,0.0165,0.0176,0.0158,0.0131,0.0134,0.0117,0.0099,0.0101,0.007,0.0063,0.0057,0.0033,0.0037,0.0022,-0.0,-0.0002,0.0051,0.0056,0.006,0.0067,0.0016,0,0,0,0,0,0.0196,0.0203,0.0183,0.0189,0.0187,0.0161,0.0153,0.0139,0.012,0.0112,0.009,0.0066,0.005,0.0042,0.0021,0.0015,-0.0025,0.0018,0.0022,0.0026,0.0026,-0.0035,-0.0037,-0.0023,-0.0023,-0.0023,0,0,0.0204,0.0201,0.0203,0.0195,0.0183,0.0186,0.0156,0.0152,0.0154,0.011,0.0109,0.0082,0.005,0.0044,0.0038,0.0028,0.0004,0.0026,0.003,0.0027,-0.0036,-0.0037,-0.0038,-0.0023,-0.0023,-0.0023,0,0,0.0229,0.0227,0.0241,0.0234,0.0222,0.0208,0.0211,0.0187,0.0178,0.0166,0.0139,0.0115,0.0091,0.0069,0.0056,0.0067,0.0027,0.0065,0.0095,0.0036,0.0034,0.0033,-0.0006,-0.0012,0.0068,0.0068,0.0068,0,0.024,0.0259,0.0241,0.0255,0.0258,0.0225,0.0241,0.0226,0.0197,0.0193,0.0175,0.0129,0.0101,0.0092,0.0094,0.0078,0.0043,0.0085,0.0042,0.0039,0.0036,-0.0003,-0.0011,0.0072,0.0071,0.0071,0.0071,0,0.0274,0.029,0.0301,0.0309,0.0307,0.0317,0.0298,0.0293,0.0276,0.0254,0.0235,0.0186,0.0159,0.0147,0.0125,0.01,0.0083,0.0056,0.0034,0.0039,-0.0003,-0.0012,0.0076,0.0075,0.0074,0.0073,0,0,0.0295,0.0322,0.0325,0.0345,0.0341,0.0346,0.0354,0.035,0.0362,0.0315,0.0319,0.0269,0.0236,0.0217,0.0182,0.0128,0.0079,0.0089,0.0085,0.006,-0.0038,-0.0027,-0.0037,0.0045,0.0044,0.0043,-0.0053,0,0.0328,0.0376,0.0375,0.0415,0.044,0.0422,0.0438,0.0427,0.0406,0.0398,0.0336,0.0326,0.0267,0.0262,0.0196,0.0107,0.0056,0.0108,-0.0048,-0.0052,-0.0036,-0.0047,0.0038,-0.006,-0.0062,-0.0063,-0.0065,0,0.0358,0.0392,0.0445,0.0485,0.0495,0.0512,0.0535,0.0547,0.0523,0.0506,0.0465,0.0416,0.0345,0.0294,0.0129,0.0166,0.0073,-0.0006,-0.0012,-0.0034,-0.0058,-0.0072,-0.0082,-0.008,-0.0079,-0.0078,-0.0077,0,0.0387,0.0436,0.0488,0.0501,0.0539,0.0562,0.0586,0.0581,0.0613,0.0581,0.0586,0.0481,0.0449,0.0296,0.0127,0.0129,-0.0063,-0.008,-0.0157,-0.0157,-0.0168,-0.0165,-0.0196,-0.0195,-0.0195,-0.0195,-0.0195,0,0.0421,0.0461,0.0512,0.0541,0.0613,0.0618,0.0687,0.0687,0.0708,0.0747,0.0654,0.0641,0.0445,0.0314,0.0146,-0.0037,-0.0054,-0.0155,-0.0186,-0.0134,-0.0127,-0.0174,-0.017,-0.0198,-0.0198,-0.0197,-0.0196,0,0.044,0.0473,0.0539,0.0601,0.0631,0.0684,0.0779,0.0825,0.083,0.0875,0.0874,0.0766,0.0593,0.0384,0.0142,0.0013,-0.0179,-0.0236,-0.0155,-0.0179,-0.0234,-0.0225,-0.0321,-0.0322,-0.0322,-0.0323,-0.0323,0,0.0456,0.0495,0.0589,0.0644,0.0679,0.0769,0.0838,0.0886,0.0935,0.0942,0.0958,0.0832,0.0727,0.0392,0.0162,-0.0147,-0.0188,-0.028,-0.0268,-0.0228,-0.0249,-0.024,-0.0231,-0.0324,-0.0324,-0.0324,-0.0324,0,0.049,0.0523,0.0581,0.069,0.0775,0.0883,0.0975,0.103,0.108,0.1082,0.1028,0.0867,0.0684,0.0412,0.0177,-0.0051,-0.0224,-0.0285,-0.0285,-0.0275,-0.0233,-0.0251,-0.0242,-0.0326,-0.0326,-0.0325,-0.0325,0,0.0517,0.0561,0.0637,0.0734,0.0843,0.0955,0.1014,0.1069,0.1126,0.1124,0.1098,0.0895,0.0779,0.0462,0.023,0.0018,-0.0027,-0.0096,-0.0107,-0.0108,-0.0024,0.0063,0.0032,0,0,0,0,0,0.0541,0.0592,0.0678,0.0782,0.0884,0.0958,0.1082,0.1131,0.118,0.1154,0.1136,0.0958,0.0647,0.0502,0.0295,0.0219,-0.0069,-0.0031,-0.0156,-0.0334,-0.0333,-0.027,0,0,0,0,0,0,0.0556,0.0634,0.0673,0.0796,0.0875,0.1002,0.1097,0.1139,0.1124,0.113,0.0962,0.0893,0.058,0.0753,0.028,0.0218,0.011,-0.0178,-0.0182,-0.0335,-0.0334,-0.0332,-0.0268,0,0,0,0,0]}]]